GW0884 Weather Reports


time (UTC)temp
C
wind
direction
speed
KPH
gust
KPH
rain 1hr
cm
rain 24hr
cm
rain mn
cm
humidity
%
barometer
mb
20260504160326 16 220 3.2 4.8 0.00 0.00 0.00 56 1014.4
20260504150647 16 155 8.0 9.7 0.00 0.00 0.00 51 1015.1
20260504150144 15 146 12.9 14.5 0.00 0.00 0.00 49 1015.0
20260504141113 17 192 3.2 3.2 0.00 0.00 0.00 43 1015.4
20260504140609 17 232 0.0 0.0 0.00 0.00 0.00 46 1015.3
20260504140105 17 169 1.6 3.2 0.00 0.00 0.00 45 1015.4
20260504130533 16 229 0.0 0.0 0.00 0.00 0.00 51 1015.7
20260504081129 10 249 0.0 0.0 0.00 0.00 0.00 65 1015.6
20260504080626 10 249 0.0 0.0 0.00 0.00 0.00 65 1015.6
20260504080122 10 248 0.0 0.0 0.00 0.00 0.00 65 1016.1
20260504050346 10 259 0.0 0.0 0.00 0.00 0.00 67 1015.9
20260504045843 10 259 0.0 0.0 0.00 0.00 0.00 65 1016.0
20260504045338 10 260 0.0 0.0 0.00 0.00 0.00 68 1016.1
20260504044835 10 259 0.0 0.0 0.00 0.00 0.00 66 1016.2
20260504044332 10 259 0.0 0.0 0.00 0.00 0.00 69 1016.0
20260504043830 10 259 0.0 0.0 0.00 0.00 0.00 64 1016.1
20260504043326 10 259 0.0 0.0 0.00 0.00 0.00 64 1016.1
20260504042824 10 259 0.0 0.0 0.00 0.00 0.00 64 1016.0
20260504042320 10 260 0.0 0.0 0.00 0.00 0.00 67 1016.0
20260504041816 10 260 0.0 1.6 0.00 0.00 0.00 71 1015.9
20260504041313 10 263 1.6 1.6 0.00 0.00 0.00 72 1016.0
20260504040809 10 276 1.6 3.2 0.00 0.00 0.00 71 1015.8
20260504040307 10 272 1.6 1.6 0.00 0.00 0.00 72 1015.9
20260504035802 10 260 0.0 0.0 0.00 0.00 0.00 71 1015.7
20260504035300 10 260 0.0 0.0 0.00 0.00 0.00 70 1015.6
20260504034757 10 260 0.0 0.0 0.00 0.00 0.00 70 1015.6
20260504034254 10 259 0.0 0.0 0.00 0.00 0.00 68 1015.5
20260504033752 10 260 0.0 0.0 0.00 0.00 0.00 65 1015.4
20260504033249 10 260 0.0 0.0 0.00 0.00 0.00 66 1015.7
20260504032746 10 266 0.0 0.0 0.00 0.00 0.00 72 1015.6
20260504032243 10 252 0.0 0.0 0.00 0.00 0.00 72 1015.5
20260504031739 10 252 0.0 0.0 0.00 0.00 0.00 72 1015.5
20260504031237 10 252 0.0 0.0 0.00 0.00 0.00 67 1015.5
20260504030732 10 264 0.0 0.0 0.00 0.00 0.00 69 1015.5
20260504030230 10 267 1.6 1.6 0.00 0.00 0.00 69 1015.4
20260504025726 10 266 0.0 0.0 0.00 0.00 0.00 73 1015.4
20260504025223 10 266 0.0 0.0 0.00 0.00 0.00 72 1015.4
20260504024720 10 266 0.0 0.0 0.00 0.00 0.00 72 1015.5
20260504024217 10 266 0.0 0.0 0.00 0.00 0.00 71 1015.5
20260504023714 10 260 0.0 0.0 0.00 0.00 0.00 69 1015.5
20260504023209 10 257 0.0 0.0 0.00 0.00 0.00 69 1015.4
20260504022706 10 257 0.0 0.0 0.00 0.00 0.00 70 1015.4
20260504022202 10 257 0.0 0.0 0.00 0.00 0.00 68 1015.4
20260504021700 10 257 0.0 0.0 0.00 0.00 0.00 67 1015.3
20260504021156 10 258 0.0 0.0 0.00 0.00 0.00 69 1015.2
20260504020653 10 257 0.0 0.0 0.00 0.00 0.00 70 1015.3
20260504020149 10 257 0.0 0.0 0.00 0.00 0.00 69 1015.4
20260504015646 10 262 0.0 1.6 0.00 0.00 0.00 70 1015.3
20260504015143 10 254 0.0 0.0 0.00 0.00 0.00 69 1015.3
20260504014638 10 253 0.0 0.0 0.00 0.00 0.00 68 1015.3
20260504014136 10 253 0.0 0.0 0.00 0.00 0.00 66 1015.4
20260504013633 10 253 0.0 0.0 0.00 0.00 0.00 66 1015.3
20260504013130 10 252 0.0 0.0 0.00 0.00 0.00 63 1015.2
20260504012627 10 252 0.0 0.0 0.00 0.00 0.00 62 1015.3
20260504012125 10 252 0.0 0.0 0.00 0.00 0.00 62 1015.2
20260504011622 11 246 0.0 0.0 0.00 0.00 0.00 63 1015.1
20260504011118 11 247 0.0 0.0 0.00 0.00 0.00 62 1015.2
20260504010614 11 240 0.0 0.0 0.00 0.00 0.00 63 1015.2
20260504010110 11 240 0.0 0.0 0.00 0.00 0.00 60 1015.1
20260504005607 12 240 0.0 0.0 0.00 0.00 0.00 57 1014.9
20260504005104 12 240 0.0 0.0 0.00 0.00 0.00 57 1014.9
20260504004602 12 240 0.0 0.0 0.00 0.00 0.00 55 1014.8
20260504004059 12 240 0.0 0.0 0.00 0.00 0.00 55 1014.8
20260504003555 12 240 0.0 0.0 0.00 0.00 0.00 56 1014.9
20260504003052 13 239 0.0 0.0 0.00 0.00 0.00 54 1014.8
20260504002549 13 240 0.0 0.0 0.00 0.00 0.00 50 1014.7
20260504002046 13 240 0.0 0.0 0.00 0.00 0.00 41 1014.6
20260504001544 13 235 0.0 0.0 0.00 0.00 0.00 37 1014.5
20260504001040 14 248 0.0 0.0 0.00 0.00 0.00 36 1014.5
20260504000537 15 252 0.0 0.0 0.00 0.00 0.00 34 1014.5
20260504000035 15 264 0.0 0.0 0.00 0.00 0.00 34 1014.5
20260503235533 15 239 0.0 0.0 0.00 0.00 0.00 34 1014.5
20260503235029 15 223 3.2 3.2 0.00 0.00 0.00 33 1014.4
20260503234527 15 247 0.0 0.0 0.00 0.00 0.00 32 1014.3
20260503234025 15 269 0.0 0.0 0.00 0.00 0.00 32 1014.2
20260503233521 16 242 0.0 0.0 0.00 0.00 0.00 32 1014.2
20260503233017 16 294 3.2 3.2 0.00 0.00 0.00 30 1014.1
20260503232514 16 343 8.0 9.7 0.00 0.00 0.00 30 1014.1
20260503232012 16 244 3.2 3.2 0.00 0.00 0.00 29 1014.0
20260503231509 16 259 4.8 4.8 0.00 0.00 0.00 29 1014.2
20260503231006 16 278 1.6 3.2 0.00 0.00 0.00 29 1014.1
20260503230502 16 250 6.4 11.3 0.00 0.00 0.00 29 1014.1
20260503230000 16 282 6.4 12.9 0.00 0.00 0.00 29 1014.3
20260503225457 16 295 11.3 14.5 0.00 0.00 0.00 28 1014.3
20260503224952 16 277 8.0 9.7 0.00 0.00 0.00 28 1014.3
20260503224449 17 281 8.0 12.9 0.00 0.00 0.00 28 1014.3
20260503223947 17 249 4.8 4.8 0.00 0.00 0.00 28 1014.2
20260503223445 17 297 4.8 4.8 0.00 0.00 0.00 28 1014.2
20260503222940 17 298 4.8 8.0 0.00 0.00 0.00 27 1014.1
20260503222439 17 338 11.3 14.5 0.00 0.00 0.00 27 1014.2
20260503221937 17 260 0.0 0.0 0.00 0.00 0.00 29 1014.3
20260503221435 17 315 8.0 9.7 0.00 0.00 0.00 27 1014.3
20260503220931 17 329 8.0 9.7 0.00 0.00 0.00 28 1014.4
20260503220428 17 258 4.8 8.0 0.00 0.00 0.00 26 1014.2
20260503215925 16 301 12.9 17.7 0.00 0.00 0.00 27 1014.2
20260503215422 16 68 1.6 3.2 0.00 0.00 0.00 27 1014.3